Location: C�an Torras
(41.5052°N, 1.9280°E)
Time: 17:42:59
(UTC+00:00)

Cosmos 2278 Rocket - Pass Details

Date: 20 January 2021
Orbit: 840 x 847 km, 71.0° (Epoch: 03 March)

Event Time Altitude Azimuth Distance (km) Brightness Sun altitude
Rises 19:58:52 0° 205° (SSW) 3,385 5.6 -34.4°
Reaches altitude 10° 20:01:17 10° 206° (SSW) 2,455 4.8 -34.9°
Enters shadow 20:02:32 17° 207° (SSW) 1,991 4.3 -35.1°
